COSMOS 2251 DEB, 34949

Orbit data source: Space-Track

COSMOS 2251 DEB, 34949 is space debris in LEO originally from a launch on Wed, 16 Jun 1993 UTC launched from the Plesetsk Missile And Space Complex (PKMTR). The debris from Iridium 33, an American commercial communications satellite, has been tracked extensively since its accidental collision with the defunct Russian satellite Cosmos 2251 in 2009. This event, occurring at high speed in low Earth orbit (LEO), generated thousands of pieces of space debris, significantly increasing the risk of further collisions. The Iridium 33 debris cloud has impacted space traffic management and orbital debris mitigation strategies, making it a subject of ongoing study in space situational awareness.

Loading next visibility...
Identifier
34949, 1993-036AEC
Orbit
LEO
Country
Flag of CISCIS
Related business
Manufacturer
Unknown
Mission
Spacecraft
Bus & Motor
Unknown
Mass
Unknown
Launch date (UTC)
1993-06-16 (33 years ago)
Launch vehicle
Unknown
Launch site
Plesetsk Missile And Space Complex (PKMTR)
Object type
Payload
Rocket body
Debris
Shape & HBR
Unknown shape, 0.1 m
Radar Cross Section
Medium (>0.1 m² and <1 m²)

Expand to show TLE details & history
Last TLE update: 2 days ago

TLE from 2 days ago
0 COSMOS 2251 DEB
1 34949U 93036AEC 26206.25677333  .00002748  00000-0  39306-3 0  9997
2 34949  74.0165  30.6013 0077395 118.7766 242.1210 14.75103722916712
Epoch: 2026-07-25T06:09Z
TLE epoch observation values (Epoch: 2026-07-25T06:09:45.215Z)
Latitude
-0.00002°
Longitude
-4.80876°
Altitude
673.227 km
Speed
7.507 km/s
True Right ascension
02h 02m 24s
True Declination
0° 00' 00"
Sunlit
Object was in daylight at epoch
Visualization orbit readout
Latitude
Unknown
Longitude
Unknown
Altitude
Unknown
Speed
Unknown
Apparent Right ascension
Unknown
Apparent Declination
Unknown
Sunlit
N/A
Visualization observer readout
Local Sidereal Time
00:02:13
Azimuth
Unknown
Elevation
Unknown
Doppler factor
Unknown
Orbital elements
Apogee altitude
696.74 km
Perigee altitude
588.069 km
Semi-major axis
7,020.541 km
Eccentricity
0.00774
Inclination
74.0165°
RAAN
30.6013°
Arg. of periapsis
118.7766°
True anomaly
241.34061°
Mean anomaly
242.121°
Eccentric anomaly
241.73045°
Mean motion
3.68967 °/min
Orbital period
97.57 mins
BSTAR
0.00039306
Loading maneuver chart data...
Computing Atmospheric mass density...

Documentation

Showing up to 5 results
|